Погода в Ле-Канне

Франция     43˚34′24″N   7˚00′58″E
темп.,
°C
ветер,
м/с
пор.,
м/с
влажн.,
%
обл.,
%
осадки,
мм/ч
давл.,
гПа
погр.,
м
16 января, сб
сб1601:00+10˚в557198 0.6 1018649
04:00+10˚в6771100 0.1 1019736
07:00+9˚вюв6771100 0.4 1020867
10:00+9˚в7773100 0.1 1021833
13:00+8˚всв3372100 0.3 1021692
16:00+8˚с0171100 0.1 1020577
19:00+8˚юз3380100 0.2 1021472
22:00+8˚з2275100 0.2 1021449
17 января, вс
вс1701:00+7˚зсз117599 0.2 1020247
04:00+7˚ссз236780 0.0 1017354
07:00+7˚сз225673 0.0 1016203
10:00+8˚ссз22530 0.0 1016251
13:00+9˚зюз225512 0.0 1016471
16:00+9˚ююв22620 0.0 1015324
19:00+9˚св116327 0.0 1017442
22:00+9˚ссз116418 0.0 1018315
18 января, пн
пн1801:00+8˚сз216217 0.0 1020243
04:00+8˚з455953 0.0 1021181
07:00+8˚зсз235350 0.0 1022141
10:00+9˚с12450 0.0 1023196
13:00+10˚вюв11380 0.0 1023338
16:00+10˚ююз11460 0.0 1023246
19:00+10˚зюз22599 0.0 1024343
22:00+9˚ссз21585 0.0 1025253
19 января, вт
вт1901:00+9˚ссв33613 0.0 1026404
04:00+8˚ссв33621 0.0 1026323
07:00+8˚ссв33622 0.0 1026318
10:00+9˚ссв336010 0.0 1027346
13:00+10˚всв336310 0.0 1026572
16:00+10˚в337058 0.0 1025395
19:00+10˚св227376 0.0 1025394
22:00+9˚св1173100 0.1 1025277
20 января, ср
ср2001:00+9˚ссв3370100 0.2 1024235
04:00+9˚св3374100 0.3 1022231
07:00+10˚св3375100 0.6 1021186
10:00+11˚всв237799 0.3 1021406
13:00+11˚всв238399 1.5 1020380
16:00+11˚всв3483100 0.9 1018412
19:00+11˚вюв248097 1.5 1017512
22:00+12˚в5780100 0.4 1016697